NOAA-14
1 23455U 94089A   05097.36493281 -.00000107  00000-0 -31991-4 0  5540
2 23455 099.0989 144.5148 0009325 194.8214 165.2683 14.13551320529495
SICH-1
1 23657U 95046A   05097.77349203  .00000901  00000-0  11250-3 0  3988
2 23657 082.5252 103.8854 0023864 358.5280 001.5879 14.81126477517534
NOAA-15
1 25338U 98030A   05097.26850650  .00000053  00000-0  41023-4 0  9974
2 25338 098.5169 107.7578 0010227 200.7458 159.3324 14.24498574358656
RESURS
1 25394U 98043A   05096.96656435  .00000012  00000-0  23627-4 0 00618
2 25394 098.5434 168.1882 0001842 043.1879 316.9444 14.24058330350312
FENGYUN1
1 25730U 99025A   05097.47661368  .00000100  00000-0  77767-4 0  3830
2 25730 098.6062 102.0864 0013896 305.1871 054.8000 14.11792995304533
OKEAN-0
1 25860U 99039A   05096.78379484  .00000317  00000-0  56398-4 0 04026
2 25860 097.7639 125.7955 0002271 102.4032 257.7431 14.73228124307498
NOAA-16
1 26536U 00055A   05097.22815057  .00000220  00000-0  14441-3 0  3044
2 26536 099.0063 055.2895 0009674 267.8686 092.1385 14.12225083234043
NOAA-17
1 27453U 02032A   05097.44544527  .00000383  00000-0  18694-3 0  3319
2 27453 098.6642 172.0199 0010842 258.2808 101.7151 14.23650280144775
HUBBLE
1 20580U 90037B   05096.91733937  .00000744  00000-0  45830-4 0 03157
2 20580 028.4689 013.1292 0004054 232.3253 127.6966 14.99658366619533
UARS
1 21701U 91063B   05096.73497352 -.00000430  00000-0 -12389-4 0 04160
2 21701 056.9786 119.6915 0005423 115.1149 245.0450 15.03789929742749
PO-34
1 25520U 98064B   05096.95927939  .00001047  00000-0  42930-4 0 01608
2 25520 028.4585 068.4594 0005854 170.3318 189.7388 15.16193350355763
ISS
1 25544U 98067A   05097.93823476  .00027437  00000-0  21970-3 0  1956
2 25544 051.6445 260.4435 0006112 345.8671 152.2022 15.70822232364633
WO-39
1 26061U 00004A   03303.41062303  .00002252  00000-0  75720-3 0  9734
2 26061 100.1904 047.3011 0034615 281.6926 078.0378 14.38082544197011
OO-38
1 26063U 00004C   05096.62544362  .00000069  00000-0  44050-4 0 03247
2 26063 100.2251 303.5386 0036599 256.8367 102.8729 14.35710115272038
NO-45
1 26932U 01043D   05097.83177402 -.00000075  00000-0  29405-5 0    59
2 26932 067.0589 048.6447 0008791 258.2005 101.8113 14.29477774183749
